Regional Weather Roundup
Issued by NWS Newport/Morehead, NC

Current Version | Previous Version | Graphics & Text | Print | Product List | Glossary Off
Versions: 1 2 3 4 5 6 7 8 9 10 11 12 13 14 15 16 17 18 19 20 21 22 23 24 25 26 27 28 29 30 31 32 33 34 35 36 37 38 39 40 41 42 43 44 45 46 47 48 49 50

000
ASUS42 KMHX 251710
RWRMHX
WEATHER ROUNDUP FOR EASTERN NORTH CAROLINA
NATIONAL WEATHER SERVICE NEWPORT/MOREHEAD CITY NC
1200 PM EST SUN JAN 25 2015

NOTE: "FAIR" INDICATES FEW OR NO CLOUDS BELOW 12,000 FEET
WITH NO SIGNIFICANT WEATHER AND/OR OBSTRUCTIONS TO VISIBILITY

NCZ015>017-031-032-045>047-102-103-251800-
NORTH COAST

CITY           SKY/WX    TMP DP  RH WIND       PRES   REMARKS
EDENTON        SUNNY     48  32  54 CALM      29.94F
ELIZABETH CITY SUNNY     48  33  56 VRB3      29.95F
KITTY HAWK     SUNNY     47  33  59 W3        29.95F
MANTEO         SUNNY     46  28  49 NW3       29.97F

$$

NCZ045>047-081-094-103-104-251800-
CENTRAL COAST

CITY           SKY/WX    TMP DP  RH WIND       PRES   REMARKS
FRISCO         SUNNY     48  33  56 VRB6      29.96F
SWANQUARTER    NOT AVBL

$$

NCZ095-097-098-100-101-251800-
SOUTHERN COAST

CITY           SKY/WX    TMP DP  RH WIND       PRES   REMARKS
BEAUFORT       SUNNY     48  33  56 SW5       29.96F
CEDAR ISLAND   NOT AVBL
JACKSONVILLE   SUNNY     50  31  48 VRB5      29.97S
PINEY ISLAND     N/A    N/A N/A N/A MISG      29.95F
WILMINGTON     SUNNY     51  33  50 W5        29.98F


$$

NCZ011>013-027>030-043-044-078>080-089-090>093-098-251800-
COASTAL PLAIN

CITY           SKY/WX    TMP DP  RH WIND       PRES   REMARKS
AHOSKIE        SUNNY     47  31  51 CALM      29.93F
CLINTON        SUNNY     52  35  51 CALM      29.97F
ELIZABETHTOWN  SUNNY     52  33  47 SE6       29.97F
GOLDSBORO      SUNNY     50  37  59 N5        29.94F
GREENVILLE     SUNNY     50  32  50 CALM      29.96F
HAVELOCK       SUNNY     50  28  42 VRB5      29.97F
KENANSVILLE    SUNNY     50  30  46 N3        29.98S
KINSTON        SUNNY     50  32  50 NE5       29.96F
NEW BERN       SUNNY     50  31  48 CALM      29.95F
RICHLANDS      SUNNY     50  30  46 N6        29.97S
ROCKY MOUNT    SUNNY     50  30  46 CALM      29.94F
WASHINGTON     SUNNY     48  32  53 CALM      29.95F
WHITEVILLE     SUNNY     49  33  54 S5        29.98F

$$

AMZ130-135-150-152-154-156-158-170-250-252-270-ANZ085-086-088-633-658-670-251800-
MARINE OBSERVATIONS

STATION/POSITION TIME  TEMP    WIND        PRES    WAVE   SWELL
                       AIR SEA DIR/SP/G            HT/PER HT/PER
                 (UTC) (F)     (DEG/KT/KT) (MB)    (FT/S) (FT/S)
CHESAPEAKE LIGHT 1600   44     250/ 10/ 10 1014.6
64 E VA BEACH    1700   46 53  290/ 10/ 12 1013.3    5/ 8   5/ 8
DUCK             1700   45 43  230/  5/  7 1013.6
2 E DUCK         1700      44                N/A     2/11   2/11
10 NE DUCK       1700      45                N/A     3/11   2/11
OREGON INLET     1700   44 47  230/  7/  9 1014.9
13E OREGON INLT  1700      46                N/A     4/11   2/11
HATTERAS CG      1700   45 53  320/  5/  7 1015.0
DIAMOND BUOY     1700   47 69  340/  6/ 12 1014.3    5/10   5/10
17 S OCRACOKE    NOT AVBL
CAPE LOOKOUT     1600   47     360/  6/  8 1015.1
BEAUFORT LAB     1700   48 50  300/  2/  4 1013.7
27 SE WRIGHTSVLE NOT AVBL
5 SE WRIGHTSVLE  1600   48 51  220/  2/  2 1015.6
225 S CAPE HAT   1553   64 72  280/ 12/ 14 1015.0    9/ 8   8/ 8
41 SE CHARLESTON 1700   53 69  320/  6/  8 1015.7    3/ 6   3/ 6

$$


USA.gov is the U.S. government's official web portal to all federal, state and local government web resources and services.